TimeCST,TemperatureF,Dew PointF,Humidity,Sea Level PressureIn,VisibilityMPH,Wind Direction,Wind SpeedMPH,Gust SpeedMPH,PrecipitationIn,Events,Conditions,WindDirDegrees,DateUTC
12:15 AM,36.9,29.3,74,30.29,10.0,ENE,5.8,-,N/A,,Clear,70,2013-03-09 06:15:00
12:35 AM,36.7,29.1,74,30.29,10.0,ENE,4.6,-,N/A,,Clear,60,2013-03-09 06:35:00
12:55 AM,36.5,28.9,74,30.29,10.0,ENE,4.6,-,N/A,,Clear,70,2013-03-09 06:55:00
1:15 AM,36.5,28.8,74,30.28,10.0,ENE,4.6,-,N/A,,Clear,60,2013-03-09 07:15:00
1:35 AM,36.0,28.4,74,30.27,10.0,ENE,4.6,-,N/A,,Clear,70,2013-03-09 07:35:00
1:55 AM,35.2,28.4,76,30.26,10.0,ENE,3.5,-,N/A,,Clear,60,2013-03-09 07:55:00
2:15 AM,35.4,28.4,76,30.24,10.0,ENE,6.9,-,N/A,,Clear,70,2013-03-09 08:15:00
2:35 AM,35.6,28.6,76,30.23,10.0,East,9.2,-,N/A,,Clear,80,2013-03-09 08:35:00
2:55 AM,36.1,28.8,75,30.22,10.0,ENE,5.8,-,N/A,,Clear,70,2013-03-09 08:55:00
3:15 AM,36.1,28.6,74,30.22,10.0,East,3.5,-,N/A,,Clear,80,2013-03-09 09:15:00
3:35 AM,35.6,28.4,75,30.23,10.0,Calm,Calm,-,N/A,,Clear,0,2013-03-09 09:35:00
3:55 AM,34.7,28.4,78,30.22,10.0,East,5.8,-,N/A,,Clear,80,2013-03-09 09:55:00
4:15 AM,36.7,29.3,75,30.22,10.0,ENE,4.6,-,N/A,,Clear,70,2013-03-09 10:15:00
4:35 AM,37.4,29.3,73,30.24,10.0,Calm,Calm,-,N/A,,Clear,0,2013-03-09 10:35:00
4:55 AM,37.4,30.0,75,30.24,10.0,East,3.5,-,N/A,,Clear,80,2013-03-09 10:55:00
5:15 AM,37.4,30.0,75,30.24,10.0,East,4.6,-,N/A,,Scattered Clouds,80,2013-03-09 11:15:00
5:35 AM,36.9,30.7,79,30.24,10.0,Calm,Calm,-,N/A,,Clear,0,2013-03-09 11:35:00
5:55 AM,37.2,30.4,76,30.23,10.0,ENE,3.5,-,N/A,,Clear,70,2013-03-09 11:55:00
6:15 AM,37.4,30.2,75,30.22,10.0,ENE,6.9,-,N/A,,Clear,70,2013-03-09 12:15:00
6:35 AM,37.4,30.0,75,30.22,10.0,East,5.8,-,N/A,,Clear,90,2013-03-09 12:35:00
6:55 AM,37.4,29.7,74,30.25,10.0,Calm,Calm,-,N/A,,Clear,0,2013-03-09 12:55:00
7:15 AM,38.1,30.2,73,30.26,10.0,Calm,Calm,-,N/A,,Clear,0,2013-03-09 13:15:00
7:35 AM,39.4,30.7,71,30.25,10.0,ENE,6.9,-,N/A,,Clear,70,2013-03-09 13:35:00
7:55 AM,40.1,31.1,70,30.24,10.0,East,5.8,-,N/A,,Clear,80,2013-03-09 13:55:00
8:15 AM,42.1,31.5,66,30.24,10.0,East,5.8,-,N/A,,Clear,100,2013-03-09 14:15:00
8:35 AM,43.3,31.3,62,30.25,10.0,Calm,Calm,-,N/A,,Clear,0,2013-03-09 14:35:00
8:55 AM,45.1,30.2,56,30.25,10.0,Calm,Calm,-,N/A,,Clear,0,2013-03-09 14:55:00
9:15 AM,47.7,30.2,51,30.23,10.0,ESE,8.1,-,N/A,,Clear,110,2013-03-09 15:15:00
9:35 AM,49.1,29.8,47,30.23,10.0,SE,6.9,-,N/A,,Clear,140,2013-03-09 15:35:00
9:55 AM,51.1,30.2,45,30.23,10.0,SE,5.8,-,N/A,,Clear,140,2013-03-09 15:55:00
10:15 AM,53.1,30.9,43,30.22,10.0,SSE,5.8,-,N/A,,Clear,150,2013-03-09 16:15:00
10:35 AM,55.2,30.9,40,30.22,10.0,South,3.5,-,N/A,,Clear,170,2013-03-09 16:35:00
10:55 AM,57.4,31.1,37,30.22,10.0,South,4.6,-,N/A,,Clear,180,2013-03-09 16:55:00
11:15 AM,58.8,30.4,34,30.21,10.0,South,3.5,-,N/A,,Clear,190,2013-03-09 17:15:00
11:35 AM,60.3,30.6,33,30.20,10.0,South,4.6,-,N/A,,Scattered Clouds,190,2013-03-09 17:35:00
11:55 AM,60.8,31.3,33,30.19,10.0,SSW,3.5,-,N/A,,Mostly Cloudy,200,2013-03-09 17:55:00
12:15 PM,61.5,30.0,30,30.18,10.0,SW,5.8,-,N/A,,Overcast,230,2013-03-09 18:15:00
12:35 PM,61.2,30.4,31,30.17,10.0,South,4.6,-,N/A,,Overcast,180,2013-03-09 18:35:00
12:55 PM,61.2,29.8,31,30.16,10.0,WSW,4.6,-,N/A,,Overcast,240,2013-03-09 18:55:00
1:15 PM,61.3,30.6,31,30.16,10.0,South,3.5,-,N/A,,Overcast,190,2013-03-09 19:15:00
1:35 PM,61.2,29.8,31,30.15,10.0,SSW,3.5,-,N/A,,Overcast,210,2013-03-09 19:35:00
1:55 PM,60.8,30.2,31,30.14,10.0,South,4.6,-,N/A,,Overcast,170,2013-03-09 19:55:00
2:15 PM,61.0,30.9,32,30.14,10.0,SSW,4.6,-,N/A,,Overcast,210,2013-03-09 20:15:00
2:35 PM,61.0,30.9,32,30.13,10.0,SSW,5.8,-,N/A,,Overcast,210,2013-03-09 20:35:00
2:55 PM,60.8,30.9,32,30.13,10.0,SSW,4.6,-,N/A,,Overcast,200,2013-03-09 20:55:00
3:15 PM,60.6,31.1,33,30.12,10.0,South,4.6,-,N/A,,Overcast,180,2013-03-09 21:15:00
3:35 PM,60.8,30.9,32,30.12,10.0,South,4.6,-,N/A,,Overcast,180,2013-03-09 21:35:00
3:55 PM,60.6,31.3,33,30.11,10.0,South,4.6,-,N/A,,Scattered Clouds,170,2013-03-09 21:55:00
4:15 PM,60.8,31.5,33,30.10,10.0,SSE,5.8,-,N/A,,Clear,160,2013-03-09 22:15:00
4:35 PM,60.8,31.5,33,30.09,10.0,ESE,6.9,-,N/A,,Scattered Clouds,120,2013-03-09 22:35:00
4:55 PM,60.3,31.6,34,30.09,10.0,SE,4.6,-,N/A,,Clear,130,2013-03-09 22:55:00
5:15 PM,59.7,31.6,35,30.09,10.0,Calm,Calm,-,N/A,,Scattered Clouds,0,2013-03-09 23:15:00
5:35 PM,59.4,31.5,35,30.09,10.0,Calm,Calm,-,N/A,,Clear,0,2013-03-09 23:35:00
5:55 PM,58.6,31.6,36,30.09,10.0,Calm,Calm,-,N/A,,Clear,0,2013-03-09 23:55:00
6:15 PM,57.6,32.2,38,30.09,10.0,SE,3.5,-,N/A,,Clear,130,2013-03-10 00:15:00
6:35 PM,56.5,33.1,41,30.09,10.0,Calm,Calm,-,N/A,,Clear,0,2013-03-10 00:35:00
6:55 PM,56.1,32.9,41,30.09,10.0,SE,3.5,-,N/A,,Scattered Clouds,140,2013-03-10 00:55:00
7:15 PM,57.0,32.0,39,30.09,10.0,SSE,5.8,-,N/A,,Scattered Clouds,150,2013-03-10 01:15:00
7:35 PM,57.2,31.5,38,30.08,10.0,SSE,4.6,-,N/A,,Clear,160,2013-03-10 01:35:00
7:55 PM,57.7,31.1,36,30.08,10.0,SSE,6.9,-,N/A,,Clear,150,2013-03-10 01:55:00
8:15 PM,57.4,30.9,37,30.09,10.0,SSE,5.8,-,N/A,,Clear,160,2013-03-10 02:15:00
8:35 PM,57.2,31.3,37,30.09,10.0,South,6.9,-,N/A,,Clear,170,2013-03-10 02:35:00
8:55 PM,57.0,31.6,38,30.08,10.0,SSE,6.9,-,N/A,,Clear,150,2013-03-10 02:55:00
9:15 PM,56.5,31.8,39,30.08,10.0,SSE,4.6,-,N/A,,Clear,150,2013-03-10 03:15:00
9:35 PM,56.3,32.0,40,30.07,10.0,South,8.1,-,N/A,,Scattered Clouds,170,2013-03-10 03:35:00
9:55 PM,56.1,32.0,40,30.07,10.0,SSE,6.9,-,N/A,,Clear,160,2013-03-10 03:55:00
10:15 PM,55.8,32.0,41,30.07,10.0,South,6.9,-,N/A,,Scattered Clouds,170,2013-03-10 04:15:00
10:35 PM,54.9,32.0,42,30.07,10.0,South,6.9,-,N/A,,Clear,170,2013-03-10 04:35:00
10:55 PM,54.5,32.0,42,30.07,10.0,South,5.8,-,N/A,,Clear,170,2013-03-10 04:55:00
11:15 PM,54.5,32.0,42,30.06,10.0,SSE,4.6,-,N/A,,Clear,160,2013-03-10 05:15:00
11:35 PM,54.5,31.8,42,30.05,10.0,SSE,5.8,-,N/A,,Clear,150,2013-03-10 05:35:00
11:55 PM,54.5,31.6,42,30.05,10.0,SSE,5.8,-,N/A,,Clear,160,2013-03-10 05:55:00